Weather History for Greenville, AL

Change the Weather History Date:

Monday, April 1, 2013

  Actual Average Record
Temperature  
Mean Temperature 64 °F -  
Max Temperature 73 °F 76 °F 88 °F (1974)
Min Temperature 53 °F 47 °F 29 °F (1987)
Degree Days  
Heating Degree Days 1    
Growing Degree Days 14 (Base 50)    
Moisture  
Dew Point 55 °F    
Average Humidity 82    
Maximum Humidity 100    
Minimum Humidity 37    
Precipitation  
Precipitation 0.01 in - - ()
Sea Level Pressure  
Sea Level Pressure 29.98 in    
Wind  
Wind Speed 4 mph (WNW)    
Max Wind Speed 9 mph    
Max Gust Speed -    
Visibility 9 miles    
Events      
Averages and records for this station are not official NWS values.
T = Trace of Precipitation, MM = Missing Value Source: NWS Daily Summary

Daily Weather History Graph

Daily Weather History Graph

Search for Another Location

Airport:

Trip Planner

Search our weather history database for the weather conditions in past years. The results will help you decide how hot, cold, wet, or windy it might be!

Date:

Astronomy

Apr. 01, 2013 Rise Set
Actual Time 6:34 AM CDT 7:06 PM CDT
Civil Twilight 6:10 AM CDT 7:30 PM CDT
Nautical Twilight 5:41 AM CDT 7:59 PM CDT
Astronomical Twilight 5:11 AM CDT 8:29 PM CDT
Moon No Moon Rise 10:36 AM CDT (4/1)
Length of Visible Light 13h 20m
Length of Day
12h 31m
Waning Gibbous, 67% of the Moon is Illuminated
Apr 1
Waning Gibbous
Apr 2
Last Quarter
Apr 10
New
Apr 18
First Quarter
Apr 25
Full

Hourly Weather History & Observations

Time (CDT) Temp. Dew Point Humidity Pressure Visibility Wind Dir Wind Speed Gust Speed Precip Events Conditions
12:19 AM 60.8 °F 60.8 °F 100% 29.90 in 7.0 mi SW 3.5 mph - N/A   Partly Cloudy
12:56 AM 61.0 °F 59.0 °F 93% 29.89 in 6.0 mi SW 4.6 mph - N/A   Clear
1:34 AM 60.8 °F 59.0 °F 94% 29.92 in 8.0 mi WNW 4.6 mph - 0.01 in   Scattered Clouds
1:43 AM 60.8 °F 59.0 °F 94% 29.92 in 8.0 mi Calm Calm - 0.01 in   Mostly Cloudy
1:56 AM 61.0 °F 59.0 °F 93% 29.91 in 7.0 mi Calm Calm - 0.01 in   Overcast
2:13 AM 60.8 °F 59.0 °F 94% 29.92 in 10.0 mi West 4.6 mph - N/A   Overcast
2:56 AM 60.1 °F 57.9 °F 93% 29.90 in 10.0 mi WSW 3.5 mph - N/A   Mostly Cloudy
3:08 AM 60.8 °F 57.2 °F 88% 29.91 in 10.0 mi WSW 5.8 mph - N/A   Mostly Cloudy
3:17 AM 59.0 °F 57.2 °F 94% 29.91 in 10.0 mi WSW 3.5 mph - N/A   Partly Cloudy
3:56 AM 59.0 °F 55.9 °F 90% 29.91 in 9.0 mi Calm Calm - N/A   Clear
4:39 AM 57.2 °F 57.2 °F 100% 29.92 in 10.0 mi WNW 3.5 mph - N/A   Mostly Cloudy
4:56 AM 59.0 °F 57.0 °F 93% 29.91 in 10.0 mi West 3.5 mph - N/A   Overcast
5:31 AM 59.0 °F 57.2 °F 94% 29.94 in 10.0 mi WNW 4.6 mph - N/A   Overcast
5:56 AM 59.0 °F 57.0 °F 93% 29.94 in 8.0 mi WNW 3.5 mph - N/A   Overcast
6:56 AM 57.9 °F 57.0 °F 97% 29.98 in 6.0 mi NW 4.6 mph - N/A   Overcast
7:54 AM 59.0 °F 57.2 °F 94% 30.01 in 2.0 mi WNW 4.6 mph - N/A   Overcast
7:56 AM 59.0 °F 57.0 °F 93% 30.00 in 2.0 mi WNW 4.6 mph - N/A   Overcast
8:12 AM 59.0 °F 57.2 °F 94% 30.01 in 3.0 mi Calm Calm - N/A   Overcast
8:56 AM 60.1 °F 57.9 °F 93% 30.01 in 6.0 mi WNW 3.5 mph - N/A   Overcast
9:43 AM 60.8 °F 57.2 °F 88% 30.03 in 8.0 mi NNW 4.6 mph - N/A   Overcast
9:56 AM 61.0 °F 57.9 °F 90% 30.02 in 10.0 mi NNW 4.6 mph - N/A   Overcast
10:56 AM 62.1 °F 57.0 °F 84% 30.04 in 10.0 mi West 5.8 mph - N/A   Overcast
11:19 AM 62.6 °F 57.2 °F 82% 30.05 in 10.0 mi West 5.8 mph - N/A   Overcast
11:56 AM 63.0 °F 57.0 °F 81% 30.04 in 10.0 mi West 5.8 mph - N/A   Overcast
12:56 PM 66.9 °F 55.9 °F 68% 30.03 in 10.0 mi West 9.2 mph - N/A   Overcast
1:38 PM 69.8 °F 55.4 °F 60% 30.03 in 10.0 mi West 8.1 mph - N/A   Scattered Clouds
1:56 PM 71.1 °F 55.9 °F 59% 30.02 in 10.0 mi West 8.1 mph - N/A   Partly Cloudy
2:56 PM 71.1 °F 54.0 °F 55% 30.00 in 10.0 mi WNW 9.2 mph - N/A   Partly Cloudy
4:56 PM 73.9 °F 46.9 °F 38% 29.97 in 10.0 mi NW 9.2 mph - N/A   Clear
5:56 PM 73.9 °F 46.0 °F 37% 29.97 in 10.0 mi NNW 6.9 mph - N/A   Clear
6:56 PM 70.0 °F 45.0 °F 41% 29.98 in 10.0 mi WNW 3.5 mph - N/A   Scattered Clouds
7:56 PM 64.0 °F 48.9 °F 58% 29.99 in 10.0 mi Calm Calm - N/A   Clear
8:56 PM 57.9 °F 51.1 °F 78% 30.02 in 10.0 mi Calm Calm - N/A   Clear
9:56 PM 55.0 °F 51.1 °F 86% 30.03 in 10.0 mi North 3.5 mph - N/A   Clear
10:56 PM 55.0 °F 48.9 °F 80% 30.04 in 10.0 mi Calm Calm - N/A   Clear
11:56 PM 53.1 °F 48.9 °F 86% 30.05 in 10.0 mi Calm Calm - N/A   Clear